Other Public Products
Issued by NWS Grand Forks, ND

Home | Current Version | Previous Version | Text Only | Print | Product List | Glossary Off
Versions: 1 2 3 4 5 6 7 8 9 10 11 12 13 14 15 16 17 18 19 20 21 22 23 24 25 26 27 28 29 30 31 32 33 34 35 36 37 38 39 40 41 42 43 44 45 46 47 48 49 50

000
FPUS83 KFGF 221610
OPUFGF
PRAIRIE TO PINES WEATHER ROUNDUP
NATIONAL WEATHER SERVICE EASTERN NORTH DAKOTA/GRAND FORKS ND
1100 AM CDT FRI AUG 22 2014

 **SATELLITE DATA USED TO AUGMENT SKY COVER AT AUTOMATED STATIONS**
 *****  WEATHER ACROSS EASTERN NORTH DAKOTA  *****

CITY           SKY/WX    TMP DP  RH WIND       PRES   REMARKS
GRAND FORKS    CLOUDY    67  64  90 N14       29.99R
GRAND FORKS AF CLOUDY    67  66  99 N13       30.01R
GRAND CITY NWS   N/A     61 N/A N/A N14         N/A
BUXTON         NOT AVBL
DEVILS LAKE    CLOUDY    64  57  77 NE10      30.03R
FARGO          CLOUDY    71  68  90 N3        29.98R
WAHPETON ARPT  CLOUDY    70  66  88 NW5       29.99S
$$

 *****  WEATHER ACROSS CENTRAL AND WESTERN NORTH DAKOTA  *****

CITY           SKY/WX    TMP DP  RH WIND       PRES   REMARKS
JAMESTOWN      CLOUDY    69  65  86 N7        30.02R
BISMARCK       MOSUNNY   71  64  78 CALM      30.05S
MINOT          CLOUDY    60  59  96 N10       30.09R FOG
MINOT AFB      CLOUDY    60  60 100 NE10      30.09R
GARRISON         N/A     65  61  87 NE10      30.07R
WILLISTON      CLOUDY    65  55  70 E12       30.12R
DICKINSON      PTSUNNY   65  61  87 NE6       30.06S
HETTINGER      CLOUDY    66  59  78 N3        30.07F
$$

 *****  OTHER OBSERVATIONS NORTHEAST NORTH DAKOTA  *****

CITY           SKY/WX    TMP DP  RH WIND       PRES   REMARKS
WALHALLA         N/A     64  64 100 N14       30.04R
LANGDON        NOT AVBL
CAVALIER       CLOUDY    64  63  94 N12       30.02S
GRAFTON        CLOUDY    64  64 100 N13       30.00S
CANDO          CLOUDY    63  59  88 N12G17    30.06S
FORT TOTTEN      N/A     64  62  92 N3        29.95
ROLLA          CLOUDY    59  59 100 N14       30.10R
RUGBY          CLOUDY    63  61  94 N13       30.07S
 ***** THE ABOVE OBSERVATIONS ARE NON NWS ARE NOT QUALITY
        CONTROLLED AND MAY MIS-REPORT RAIN FOR SNOW...
$$

 *****  OTHER OBSERVATIONS SOUTHEAST NORTH DAKOTA *****

CITY           SKY/WX    TMP DP  RH WIND       PRES   REMARKS
COOPERSTOWN    NOT AVBL
VALLEY CITY    CLOUDY    68  68 100 NE8       30.00S
OAKES          NOT AVBL
GWINNER        CLOUDY    72  72 100 N7        30.01S
SHEYENNE NWR     N/A     72  69  91 N5        29.95S
BUFFALO        NOT AVBL
WYNDMERE       NOT AVBL
 ***** THE ABOVE OBSERVATIONS ARE NON NWS ARE NOT QUALITY
       CONTROLLED AND MAY MIS-REPORT RAIN FOR SNOW...
$$

  *****  WEATHER ACROSS NORTHERN MINNESOTA  *****

CITY           SKY/WX    TMP DP  RH WIND       PRES   REMARKS
FLAG ISLAND    PTSUNNY   70  64  83 CALM      29.98S
WARROAD        CLOUDY    70  64  83 NE6       30.00R
ROSEAU         PTSUNNY   70  64  83 NE6       29.99R
HALLOCK        CLOUDY    66  64  94 N14       29.99S
THF RVR FALLS  CLOUDY    68  66  94 N5        29.98R
HALSTAD          N/A     69  66  89 N10         N/A
FOSSTON        HVY RAIN  72  70  94 CALM      29.99R
BAUDETTE       CLOUDY    67  64  90 E5        29.99S
WASKISH        MOSUNNY   72  68  88 CALM      29.99S
CROOKSTON      CLOUDY    68  66  94 N10       29.99R
$$
  *****  WEATHER ACROSS CENTRAL AND WEST MINNESOTA  *****

CITY           SKY/WX    TMP DP  RH WIND       PRES   REMARKS
BEMIDJI        PTSUNNY   71  65  80 CALM      29.99S
PARK RAPIDS    CLOUDY    73  66  78 N3        29.99S
WADENA         CLOUDY    72  66  83 CALM      29.99R
DETROIT LAKES  MOSUNNY   75  66  73 CALM      30.00R
MOORHEAD       CLOUDY    70  70 100 NW3       29.99S FOG
FERGUS FALLS   PTSUNNY   73  70  88 W5        29.97F
ELBOW LAKE     CLOUDY    75  69  80 N6        29.98S
MORRIS MN      SUNNY     75  70  83 CALM      29.97R
STAPLES        CLOUDY    70  66  88 CALM      29.99R
WHEATON          N/A     70  68  94 CALM      30.00S
$$
  *****  WEATHER ELSEWHERE ACROSS MINNESOTA  *****

CITY           SKY/WX    TMP DP  RH WIND       PRES   REMARKS
DULUTH         FOG       64  62  93 SE5       29.99R VSB 1/4
INTRNTL FALLS  CLOUDY    68  63  84 E6        29.99S
ELY            CLOUDY    64  63  94 CALM      30.00R
CLOQUET        FOG       63  61  94 CALM      30.00R VSB 1/4
BRAINERD       CLOUDY    67  64  90 CALM      29.99R
HIBBING        CLOUDY    70  63  78 CALM      30.00R
ALEXANDRIA     MOSUNNY   78  68  71 NE7       30.00R
SAINT CLOUD    CLOUDY    74  67  78 NW7       29.98R
MINNEAPOLIS    CLOUDY    73  68  84 N6        29.96R
$$

  *****  WEATHER ACROSS SOUTH DAKOTA  *****

CITY           SKY/WX    TMP DP  RH WIND       PRES   REMARKS
SIOUX FALLS    MOSUNNY   81  70  69 NE8       29.97S
BROOKINGS      NOT AVBL
WATERTOWN      PTSUNNY   78  68  71 CALM      30.00R
HURON          MOSUNNY   79  67  66 N6        29.98S
SISSETON         N/A     73  70  90 N9        29.98R
ABERDEEN       CLOUDY    69  66  90 N6        30.01S
MITCHELL       SUNNY     79  70  74 VRB3      29.98S
PIERRE         CLOUDY    73  67  81 E12       29.98F
MOBRIDGE       CLOUDY    69  65  86 NE5       30.01R
RAPID CITY     CLOUDY    65  61  87 NE5       30.08S
$$

  *****  SOME WEATHER IN NEARBY STATES *****

CITY           SKY/WX    TMP DP  RH WIND       PRES   REMARKS
GLASGOW MT     LGT RAIN  60  58  92 E15       30.11R
GREAT FALLS MT LGT RAIN  52  51  97 NE8       30.13R
CHEYENNE WY    PTSUNNY   64  53  67 SW6       30.21F
SCOTTSBLUFF NE CLOUDY    69  56  62 W7        30.11S
OMAHA NE       MOSUNNY   84  74  71 VRB5      29.92S HX  91
DES MOINES IA  PTSUNNY   82  72  71 SE5       29.94R
DAVENPORT IA   TSTM      72  70  93 W5        29.98R FOG
CHICAGO IL     CLOUDY    79  74  84 W7        29.96R
EAU CLAIRE WI  CLOUDY    76  73  91 SW5       29.93R
LA CROSSE WI   CLOUDY    78  73  84 SW3       29.93R
$$

  *****  SOME NATIONAL WEATHER *****

CITY           SKY/WX    TMP DP  RH WIND       PRES   REMARKS
LA GUARDIA NY  CLOUDY    74  59  59 NE12      30.04F
RALEIGH NC     PTSUNNY   88  72  58 NW3       30.03S HX  94
ATLANTA GA     MOSUNNY   88  72  58 N13       30.14S HX  94
NEW ORLEANS LA MOSUNNY   88  74  63 NW9       30.12S HX  96
OKLAHOMA CITY  SUNNY     91  67  44 SW20G29   30.00S HX  94
ALBUQUERQUE NM LGT RAIN  62  58  86 CALM      30.26S
SALT LAKE CITY CLOUDY    72  47  40 S14       29.99S
LOS ANGELES CA PTSUNNY   70  63  78 W3        29.97R
BOISE ID       MOSUNNY   66  36  32 W5        29.94R
SEATTLE WA     MOSUNNY   62  51  67 NE5       30.07R
$$

*** WEATHER ACROSS MANITOBA...SASKATCHEWAN AND ONTARIO ***
                ***ONTARIO***

CITY           SKY/WX    TMP DP  RH WIND       PRES   REMARKS
GERALDTON      MOSUNNY   75  63  64 CALM      30.03S
THUNDER BAY    LGT RAIN  63  61  94 E9        30.02R
SIOUX LOOKOUT  PTSUNNY   70  63  78 VRB6      30.02
TORONTO        PTSUNNY   72  64  78 CALM      30.01F
BIG TROUT LK   MOSUNNY   70  61  73 S3        30.00R
PICKLE LAKE    PTSUNNY   73  59  60 VRB2      30.02F
DRYDEN         CLOUDY    66  63  88 SE5       30.02S
KENORA         CLOUDY    68  63  83 SE6       30.02S
$$
                *** MANITOBA***

CITY           SKY/WX    TMP DP  RH WIND       PRES   REMARKS
BRANDON        PTSUNNY   66  55  68 NE13      30.10S
DAUPHIN        CLOUDY    61  57  88 N18G24    30.13S
ISLAND LAKE    LGT RAIN  52  50  93 N7        30.11R FOG
PILOT MOUND      N/A     61  59  94 N9          N/A
THE PAS        PTSUNNY   61  52  72 N10       30.21R
THOMPSON       CLOUDY    52  48  87 N10G17    30.22S
WINNIPEG       PTSUNNY   66  63  88 N8        30.03R
LYNN LAKE      CLOUDY    50  46  87 MISG      30.30R
CHURCHILL      PTSUNNY   50  43  76 N22G28    30.24R
GILLAM         CLOUDY    48  48 100 N17       30.18R
$$
                ***SASKATCHEWAN***

CITY           SKY/WX    TMP DP  RH WIND       PRES   REMARKS
ESTEVAN        CLOUDY    61  55  82 NE13      30.14S
KINDERSLEY     PTSUNNY   55  48  76 NE10      30.27S
LLOYDMINSTER   PTSUNNY   52  43  71 NE7       30.33R
PRINCE ALBERT  PTSUNNY   61  52  72 N8        30.26S
REGINA         CLOUDY    61  54  77 NE9       30.19R


USA.gov is the U.S. government's official web portal to all federal, state and local government web resources and services.